Michigan City, IN

2:50 AM CDT on April 30, 2017 (GMT -0500)
The Beacher, Franklin@10th | | Change Station
Active Advisory: Flash Flood Watch Active Notice: Flash Flood Watch

Elev 623 ft 41.71 °N, 86.90 °W | Updated 19 seconds ago

Light Rain
Light Rain
45.8 °F
Feels Like 46 °F
N
1.0
Wind Variable Wind from ESE
Gusts 11.0 mph

Today
High -- | Low -- °F
--% Chance of Precip.
Yesterday
High -- | Low -- °F
Precip. -- in
Pressure 29.90 in
Visibility 10.0 miles
Clouds Mostly Cloudy 2400 ft
Mostly Cloudy 6000 ft
Overcast 9500 ft
Windchill 46 °F
Dew Point 44 °F
Humidity 92%
Rainfall 0.00 in
Snow Depth Not available.
5:45 AM 7:44 PM
Waxing Crescent, 20% visible
METAR KMGC 300735Z AUTO 11010G14KT 080V140 10SM -RA BKN024 BKN060 OVC095 07/07 A2990 RMK AO2
Pressure 29.90 in
Visibility 10.0 miles
Clouds Mostly Cloudy 2400 ft
Mostly Cloudy 6000 ft
Overcast 9500 ft
Windchill 46 °F
Dew Point 44 °F
Humidity 92%
Rainfall 0.00 in
Snow Depth Not available.
5:45 AM 7:44 PM
Waxing Crescent, 20% visible
METAR KMGC 300735Z AUTO 11010G14KT 080V140 10SM -RA BKN024 BKN060 OVC095 07/07 A2990 RMK AO2

Get Your Daily Forecast Email!

Thanks for signing up!

Be on the lookout for a verification email in your inbox.

You'll start receiving severe weather alerts in your inbox..

×

10-Day Weather Forecast

Almanac

Astronomy

Apr. 30, 2017 Rise Set
Actual Time
Civil Twilight
Nautical Twilight
Astronomical Twilight
Moon
Length of Visible Light
Length of Day
Tomorrow will be .
, % of the Moon is Illuminated

Today's Extremes

State Highs State Lows

Community

WunderPhotos

WunderBlog® & News

Nearby

Air Quality

  Air Quality AQ Index Pollutant
Not available.

Snow Depth

Station Depth Elevation

Earthquake Activity

City Distance Mag. Time & Date
Minimum magnitude displayed is 2.5.

Coastal Water Temperatures

Place Temperature

Stations

Nearby Weather Stations

Station Location Temp. Windchill Dew Point Humidity Wind Precip. Elev Updated Type
                   

Watches & Warnings

Flash Flood Watch
Issued: 8:05 PM CDT Apr. 29, 2017 – National Weather Service

... Flash Flood Watch remains in effect through Monday morning...

The Flash Flood Watch continues for

* portions of northern Indiana and southwest Michigan, including
the following areas, in northern Indiana, La Porte, St. Joseph
in, and Starke. In southwest Michigan, Berrien and Cass mi.

* Through Monday morning

* periods of heavy rainfall are expected tonight through Sunday
night. Two to four inches of rain is forecast during this
time.

* In addition to potential flooding of streets and roads in
flood prone areas, area rivers and streams are also likely to
experience flooding. This would persist for several days after
the rain ends.

Precautionary/preparedness actions...

A Flash Flood Watch means that conditions may develop that lead
to flash flooding. Flash flooding is a very dangerous situation.

You should monitor later forecasts and be prepared to take action
should flash flood warnings be issued.